Weather History for San Carlos, CA

Change the Weather History Date:

Thursday, November 29, 2012

  Actual Average Record
Temperature  
Mean Temperature 58 °F -  
Max Temperature 62 °F 61 °F 76 °F (1977)
Min Temperature 53 °F 40 °F 31 °F (1976)
Degree Days  
Heating Degree Days 8    
Growing Degree Days 8 (Base 50)    
Moisture  
Dew Point 53 °F    
Average Humidity 84    
Maximum Humidity 100    
Minimum Humidity 72    
Precipitation  
Precipitation 0.00 in - - ()
Sea Level Pressure  
Sea Level Pressure 30.00 in    
Wind  
Wind Speed 8 mph (SE)    
Max Wind Speed 17 mph    
Max Gust Speed 28 mph    
Visibility 9 miles    
Events Rain    
Averages and records for this station are not official NWS values.
T = Trace of Precipitation, MM = Missing Value Source: NWS Daily Summary

Daily Weather History Graph

Daily Weather History Graph

Search for Another Location

Airport:

Trip Planner

Search our weather history database for the weather conditions in past years. The results will help you decide how hot, cold, wet, or windy it might be!

Date:

Astronomy

Nov. 29, 2012 Rise Set
Actual Time 7:03 AM PST 4:51 PM PST
Civil Twilight 6:34 AM PST 5:20 PM PST
Nautical Twilight 6:02 AM PST 5:52 PM PST
Astronomical Twilight 5:31 AM PST 6:23 PM PST
Moon 5:58 PM PST (11/29) 7:54 AM PST (11/29)
Length of Visible Light 10h 45m
Length of Day
9h 47m
Full, 99% of the Moon is Illuminated
Nov 29
Full
Dec 6
Last Quarter
Dec 13
New
Dec 19
First Quarter
Dec 28
Full

Hourly Weather History & Observations

Time (PST) Temp. Dew Point Humidity Pressure Visibility Wind Dir Wind Speed Gust Speed Precip Events Conditions
12:10 AM 55.4 °F 50.0 °F 82% 30.06 in 10.0 mi South 5.8 mph - N/A   Scattered Clouds
12:30 AM 55.4 °F 50.0 °F 82% 30.06 in 10.0 mi South 4.6 mph - N/A   Mostly Cloudy
12:50 AM 55.4 °F 50.0 °F 82% 30.06 in 10.0 mi SE 5.8 mph - N/A   Mostly Cloudy
1:10 AM 53.6 °F 50.0 °F 88% 30.05 in 10.0 mi SE 5.8 mph - N/A   Clear
1:30 AM 53.6 °F 50.0 °F 88% 30.05 in 10.0 mi SSE 3.5 mph - N/A   Clear
1:50 AM 53.6 °F 50.0 °F 88% 30.05 in 10.0 mi SE 5.8 mph - N/A   Partly Cloudy
2:10 AM 55.4 °F 50.0 °F 82% 30.05 in 10.0 mi SE 5.8 mph - N/A   Partly Cloudy
2:30 AM 55.4 °F 50.0 °F 82% 30.05 in 10.0 mi SE 4.6 mph - N/A   Clear
2:50 AM 55.4 °F 50.0 °F 82% 30.05 in 10.0 mi SE 6.9 mph - N/A   Clear
3:10 AM 55.4 °F 50.0 °F 82% 30.05 in 10.0 mi SE 4.6 mph - N/A   Clear
3:30 AM 55.4 °F 50.0 °F 82% 30.05 in 10.0 mi SE 4.6 mph - N/A   Clear
3:50 AM 53.6 °F 50.0 °F 88% 30.04 in 10.0 mi SE 6.9 mph - N/A   Clear
4:10 AM 53.6 °F 50.0 °F 88% 30.04 in 10.0 mi SE 4.6 mph - N/A   Clear
4:30 AM 55.4 °F 50.0 °F 82% 30.04 in 10.0 mi SE 6.9 mph - N/A   Clear
4:50 AM 55.4 °F 50.0 °F 82% 30.03 in 10.0 mi SE 9.2 mph - N/A   Clear
5:10 AM 55.4 °F 50.0 °F 82% 30.04 in 10.0 mi SE 8.1 mph - N/A   Partly Cloudy
5:30 AM 55.4 °F 50.0 °F 82% 30.03 in 10.0 mi SE 8.1 mph - N/A   Clear
5:50 AM 55.4 °F 50.0 °F 82% 30.04 in 10.0 mi SE 6.9 mph - N/A   Clear
6:10 AM 55.4 °F 50.0 °F 82% 30.04 in 10.0 mi SE 8.1 mph - N/A   Partly Cloudy
6:30 AM 57.2 °F 50.0 °F 77% 30.04 in 10.0 mi SE 9.2 mph - N/A   Clear
6:47 AM 57.2 °F 50.0 °F 77% 30.04 in 10.0 mi SE 10.4 mph - N/A   Overcast
6:50 AM 57.2 °F 50.0 °F 77% 30.04 in 10.0 mi SE 10.4 mph - N/A   Clear
7:47 AM 57.2 °F 50.0 °F 77% 30.04 in 10.0 mi ESE 10.4 mph - N/A   Overcast
8:47 AM 57.2 °F 50.0 °F 77% 30.04 in 10.0 mi SE 11.5 mph - N/A   Overcast
9:47 AM 59.0 °F 51.8 °F 77% 30.04 in 10.0 mi ESE 9.2 mph - N/A   Overcast
10:47 AM 60.8 °F 51.8 °F 72% 30.04 in 10.0 mi SE 12.7 mph - N/A   Overcast
11:47 AM 59.0 °F 53.6 °F 82% 30.03 in 9.0 mi ESE 15.0 mph - N/A   Overcast
12:47 PM 60.8 °F 55.4 °F 82% 30.00 in 10.0 mi SE 8.1 mph - N/A   Overcast
1:04 PM 59.0 °F 55.4 °F 88% 29.99 in 2.5 mi SE 11.5 mph - N/A   Overcast
1:48 PM 57.2 °F 55.4 °F 94% 29.99 in 0.8 mi SSE 9.2 mph - N/A Rain Light Rain
2:04 PM 57.2 °F 57.2 °F 100% 29.99 in 2.0 mi SE 13.8 mph - N/A Rain Light Rain
2:26 PM 59.0 °F 55.4 °F 88% 29.97 in 10.0 mi ESE 13.8 mph 25.3 mph N/A   Overcast
2:47 PM 60.8 °F 55.4 °F 82% 29.96 in 10.0 mi SE 17.3 mph 24.2 mph N/A   Overcast
3:47 PM 60.8 °F 55.4 °F 82% 29.96 in 10.0 mi SSE 10.4 mph 17.3 mph N/A   Overcast
4:53 PM 62.6 °F 55.4 °F 77% 29.96 in 10.0 mi SE 13.8 mph 19.6 mph N/A   Overcast
5:47 PM 60.8 °F - N/A% 29.95 in 10.0 mi ESE 11.5 mph 19.6 mph N/A   Overcast
6:47 PM 59.0 °F 57.2 °F 94% 29.94 in 10.0 mi SE 9.2 mph - N/A   Overcast
7:47 PM 60.8 °F 57.2 °F 88% 29.93 in 10.0 mi ESE 12.7 mph 21.9 mph N/A   Overcast
8:50 PM 59.0 °F 57.2 °F 94% 29.91 in 8.0 mi ESE 12.7 mph 17.3 mph N/A   Overcast
9:10 PM 60.8 °F 57.2 °F 88% 29.91 in 10.0 mi ESE 8.1 mph - N/A   Overcast
9:30 PM 60.8 °F 57.2 °F 88% 29.92 in 10.0 mi SE 11.5 mph 18.4 mph N/A   Overcast
9:50 PM 59.0 °F 57.2 °F 94% 29.92 in 5.0 mi SE 11.5 mph 18.4 mph N/A Rain Light Rain
10:10 PM 62.6 °F 57.2 °F 82% 29.91 in 5.0 mi SSE 17.3 mph 27.6 mph N/A Rain Light Rain
10:30 PM 62.6 °F 57.2 °F 82% 29.91 in 10.0 mi SSE 12.7 mph - N/A   Overcast
10:50 PM 62.6 °F 57.2 °F 82% 29.90 in 10.0 mi SSE 12.7 mph 21.9 mph N/A   Overcast
11:10 PM 62.6 °F 57.2 °F 82% 29.90 in 9.0 mi SSE 13.8 mph 20.7 mph N/A   Overcast
11:30 PM 60.8 °F 57.2 °F 88% 29.89 in 8.0 mi SE 15.0 mph 20.7 mph N/A   Overcast
11:50 PM 62.6 °F 57.2 °F 82% 29.89 in 5.0 mi SSE 11.5 mph 20.7 mph N/A Rain Light Rain